GW4674 Weather Reports


Display with metric or nautical units.
time (UTC)temp
F
wind
direction
speed
MPH
gust
MPH
rain 1hr
in
rain 24hr
in
rain mn
in
humidity
%
barometer
mb
20260504150733 64 264 3.0 6.0 0.00 0.00 0.00 35 1018.4
20260504150230 64 255 1.0 4.0 0.00 0.00 0.00 35 1018.6
20260504141159 60 231 4.0 10.0 0.00 0.00 0.00 36 1018.6
20260504140656 60 240 2.0 8.0 0.00 0.00 0.00 38 1018.7
20260504140152 60 327 4.0 5.0 0.00 0.00 0.00 36 1018.8
20260504130620 57 235 4.0 8.0 0.00 0.00 0.00 41 1019.2
20260504130117 57 282 4.0 5.0 0.00 0.00 0.00 41 1019.3
20260504110508 47 226 2.0 3.0 0.00 0.00 0.00 59 1019.5
20260504100430 46 207 2.0 4.0 0.00 0.00 0.00 58 1019.1
20260504081823 46 217 2.0 4.0 0.00 0.00 0.00 58 1018.7
20260504081320 45 208 2.0 3.0 0.00 0.00 0.00 58 1018.8
20260504080816 45 197 2.0 3.0 0.00 0.00 0.00 59 1018.8
20260504080313 46 212 2.0 3.0 0.00 0.00 0.00 59 1018.7
20260504070235 46 214 2.0 3.0 0.00 0.00 0.00 57 1018.5
20260504060156 47 198 2.0 2.0 0.00 0.00 0.00 51 1018.5
20260504050623 42 181 1.0 3.0 0.00 0.00 0.00 70 1018.3
20260504050120 44 274 1.0 2.0 0.00 0.00 0.00 68 1018.3
20260504045617 46 221 1.0 4.0 0.00 0.00 0.00 64 1018.4
20260504045112 46 201 3.0 3.0 0.00 0.00 0.00 58 1018.3
20260504044610 45 184 1.0 3.0 0.00 0.00 0.00 58 1018.2
20260504044106 44 173 3.0 4.0 0.00 0.00 0.00 60 1018.2
20260504043604 42 185 2.0 3.0 0.00 0.00 0.00 68 1018.3
20260504043102 43 185 1.0 2.0 0.00 0.00 0.00 68 1018.2
20260504042559 47 147 0.0 3.0 0.00 0.00 0.00 50 1018.2
20260504042055 45 191 2.0 3.0 0.00 0.00 0.00 56 1018.1
20260504041551 46 152 0.0 2.0 0.00 0.00 0.00 60 1018.1
20260504041048 47 166 1.0 2.0 0.00 0.00 0.00 62 1018.2
20260504040545 47 201 2.0 3.0 0.00 0.00 0.00 52 1018.2
20260504040042 45 177 2.0 4.0 0.00 0.00 0.00 58 1018.1
20260504035538 45 164 2.0 4.0 0.00 0.00 0.00 57 1018.2
20260504035035 44 189 2.0 4.0 0.00 0.00 0.00 65 1018.1
20260504034533 44 199 1.0 3.0 0.00 0.00 0.00 64 1018.1
20260504034029 45 151 1.0 2.0 0.00 0.00 0.00 61 1018.1
20260504033528 45 178 2.0 3.0 0.00 0.00 0.00 54 1018.2
20260504033025 45 150 1.0 4.0 0.00 0.00 0.00 61 1018.0
20260504032521 46 199 2.0 2.0 0.00 0.00 0.00 61 1018.2
20260504032018 46 199 2.0 2.0 0.00 0.00 0.00 56 1018.0
20260504031515 47 205 2.0 2.0 0.00 0.00 0.00 57 1018.0
20260504031011 47 203 2.0 2.0 0.00 0.00 0.00 58 1018.1
20260504030509 48 183 2.0 4.0 0.00 0.00 0.00 55 1018.1
20260504030004 48 188 3.0 3.0 0.00 0.00 0.00 50 1018.0
20260504025501 48 160 2.0 4.0 0.00 0.00 0.00 46 1017.9
20260504024958 47 191 2.0 4.0 0.00 0.00 0.00 47 1018.1
20260504024455 47 183 2.0 3.0 0.00 0.00 0.00 48 1018.1
20260504023953 47 190 3.0 4.0 0.00 0.00 0.00 48 1018.1
20260504023449 47 197 2.0 3.0 0.00 0.00 0.00 48 1018.1
20260504022944 48 183 2.0 3.0 0.00 0.00 0.00 47 1018.3
20260504022441 48 139 2.0 3.0 0.00 0.00 0.00 45 1018.1
20260504021938 48 182 2.0 3.0 0.00 0.00 0.00 45 1018.1
20260504021435 49 183 1.0 2.0 0.00 0.00 0.00 45 1018.1
20260504020932 49 172 2.0 2.0 0.00 0.00 0.00 45 1018.2
20260504020429 49 205 0.0 2.0 0.00 0.00 0.00 47 1018.0
20260504015926 49 156 2.0 4.0 0.00 0.00 0.00 43 1018.0
20260504015421 49 175 2.0 4.0 0.00 0.00 0.00 46 1017.9
20260504014918 48 193 2.0 4.0 0.00 0.00 0.00 45 1018.0
20260504014414 48 201 2.0 4.0 0.00 0.00 0.00 47 1018.0
20260504013911 48 175 2.0 3.0 0.00 0.00 0.00 46 1018.0
20260504013409 48 192 2.0 3.0 0.00 0.00 0.00 45 1018.0
20260504012905 49 158 1.0 2.0 0.00 0.00 0.00 42 1018.0
20260504012403 49 187 1.0 2.0 0.00 0.00 0.00 42 1017.8
20260504011900 49 192 0.0 2.0 0.00 0.00 0.00 42 1017.9
20260504011356 49 277 0.0 2.0 0.00 0.00 0.00 42 1017.8
20260504010847 49 239 0.0 2.0 0.00 0.00 0.00 41 1017.7
20260504010342 49 180 1.0 2.0 0.00 0.00 0.00 42 1017.6
20260504005839 50 191 2.0 2.0 0.00 0.00 0.00 43 1017.5
20260504005336 50 194 1.0 2.0 0.00 0.00 0.00 41 1017.5
20260504004834 50 207 1.0 2.0 0.00 0.00 0.00 40 1017.2
20260504004331 50 247 1.0 2.0 0.00 0.00 0.00 38 1017.3
20260504003827 51 235 2.0 2.0 0.00 0.00 0.00 37 1017.2
20260504003325 51 223 1.0 2.0 0.00 0.00 0.00 37 1017.2
20260504002821 51 97 0.0 2.0 0.00 0.00 0.00 36 1017.0
20260504002318 52 241 2.0 2.0 0.00 0.00 0.00 35 1017.0
20260504001816 52 162 0.0 2.0 0.00 0.00 0.00 34 1016.9
20260504001313 52 272 0.0 2.0 0.00 0.00 0.00 34 1016.7
20260504000810 53 209 1.0 2.0 0.00 0.00 0.00 35 1016.7
20260504000307 53 222 2.0 3.0 0.00 0.00 0.00 35 1016.7
20260503235804 53 229 2.0 2.0 0.00 0.00 0.00 34 1016.6
20260503235301 53 253 1.0 2.0 0.00 0.00 0.00 33 1016.6
20260503234758 53 230 0.0 2.0 0.00 0.00 0.00 35 1016.5
20260503234256 53 268 2.0 2.0 0.00 0.00 0.00 35 1016.4
20260503233754 53 254 2.0 2.0 0.00 0.00 0.00 35 1016.6
20260503233249 53 248 0.0 3.0 0.00 0.00 0.00 34 1016.3
20260503232746 53 295 0.0 3.0 0.00 0.00 0.00 32 1016.1
20260503232244 54 232 2.0 3.0 0.00 0.00 0.00 33 1016.1
20260503231742 54 202 3.0 3.0 0.00 0.00 0.00 31 1016.1
20260503231238 54 215 1.0 4.0 0.00 0.00 0.00 32 1016.1
20260503230734 54 308 0.0 4.0 0.00 0.00 0.00 29 1016.0
20260503230232 54 336 0.0 5.0 0.00 0.00 0.00 31 1016.1
20260503225729 54 204 2.0 3.0 0.00 0.00 0.00 30 1015.9
20260503225229 55 232 0.0 4.0 0.00 0.00 0.00 30 1015.9
20260503224727 55 260 3.0 6.0 0.00 0.00 0.00 30 1015.9
20260503224225 55 285 0.0 4.0 0.00 0.00 0.00 29 1015.8
20260503223722 55 24 3.0 5.0 0.00 0.00 0.00 31 1015.8
20260503223219 55 144 2.0 7.0 0.00 0.00 0.00 29 1015.8
20260503222715 56 230 5.0 5.0 0.00 0.00 0.00 30 1015.9
20260503222213 56 295 1.0 7.0 0.00 0.00 0.00 28 1015.9
20260503221711 56 296 2.0 6.0 0.00 0.00 0.00 29 1015.8
20260503221209 56 334 2.0 4.0 0.00 0.00 0.00 29 1015.9
20260503220705 56 244 4.0 4.0 0.00 0.00 0.00 30 1015.8
20260503220201 57 262 2.0 4.0 0.00 0.00 0.00 28 1015.7
20260503215658 58 204 1.0 5.0 0.00 0.00 0.00 30 1015.7
20260503215155 56 326 2.0 8.0 0.00 0.00 0.00 32 1015.7
20260503214654 57 164 2.0 6.0 0.00 0.00 0.00 30 1015.9
20260503214149 58 312 4.0 8.0 0.00 0.00 0.00 29 1015.8
20260503213644 57 205 2.0 5.0 0.00 0.00 0.00 29 1015.8
20260503213140 57 259 4.0 8.0 0.00 0.00 0.00 29 1015.8
20260503212638 57 252 4.0 7.0 0.00 0.00 0.00 29 1015.7
20260503212135 58 301 2.0 4.0 0.00 0.00 0.00 31 1015.7
20260503211632 60 238 3.0 5.0 0.00 0.00 0.00 30 1015.4
20260503211127 59 234 2.0 3.0 0.00 0.00 0.00 30 1015.7
20260503210623 59 295 3.0 8.0 0.00 0.00 0.00 30 1015.8
20260503210120 58 313 2.0 5.0 0.00 0.00 0.00 30 1015.7
20260503205616 58 245 4.0 6.0 0.00 0.00 0.00 31 1016.0
20260503205112 57 206 2.0 9.0 0.00 0.00 0.00 32 1016.0
20260503204609 58 347 4.0 6.0 0.00 0.00 0.00 31 1015.9
20260503204107 57 263 2.0 7.0 0.00 0.00 0.00 31 1015.8
20260503203603 55 221 4.0 9.0 0.00 0.00 0.00 35 1015.8
20260503203101 56 305 5.0 11.0 0.00 0.00 0.00 32 1015.6
20260503202559 56 217 6.0 7.0 0.00 0.00 0.00 33 1015.7
20260503202057 57 357 2.0 4.0 0.00 0.00 0.00 32 1015.6
20260503201554 57 228 2.0 7.0 0.00 0.00 0.00 33 1015.8
20260503201051 58 185 2.0 12.0 0.00 0.00 0.00 31 1015.8
20260503200547 56 317 3.0 5.0 0.00 0.00 0.00 34 1015.8
20260503200044 56 116 0.0 6.0 0.00 0.00 0.00 35 1015.7
20260503195541 55 319 3.0 6.0 0.00 0.00 0.00 38 1015.7
20260503195038 56 318 3.0 12.0 0.00 0.00 0.00 34 1016.0
20260503194535 55 303 3.0 6.0 0.00 0.00 0.00 33 1016.0
20260503194035 55 262 3.0 6.0 0.00 0.00 0.00 35 1016.0
20260503193532 53 298 0.0 5.0 0.00 0.00 0.00 35 1016.1
20260503193027 55 285 3.0 7.0 0.00 0.00 0.00 35 1016.1
20260503192523 54 24 4.0 6.0 0.00 0.00 0.00 35 1016.0
20260503192019 56 233 7.0 12.0 0.00 0.00 0.00 35 1016.3
20260503191516 56 300 2.0 11.0 0.00 0.00 0.00 33 1016.2
20260503191013 56 339 5.0 9.0 0.00 0.00 0.00 36 1016.3
20260503190510 56 268 4.0 8.0 0.00 0.00 0.00 33 1016.0
20260503190008 56 258 5.0 11.0 0.00 0.00 0.00 33 1016.2
20260503185504 57 246 3.0 8.0 0.00 0.00 0.00 36 1016.0
20260503185003 56 296 3.0 10.0 0.00 0.00 0.00 34 1016.2
20260503184500 54 301 5.0 8.0 0.00 0.00 0.00 34 1016.1
20260503183956 56 189 2.0 9.0 0.00 0.00 0.00 37 1016.2
20260503183453 55 240 4.0 7.0 0.00 0.00 0.00 36 1016.3
20260503182950 53 301 6.0 8.0 0.00 0.00 0.00 38 1016.3
20260503182449 52 335 4.0 10.0 0.00 0.00 0.00 39 1016.2
20260503181946 54 246 4.0 9.0 0.00 0.00 0.00 36 1016.3
20260503181443 53 315 3.0 10.0 0.00 0.00 0.00 36 1016.3
20260503180939 54 284 3.0 7.0 0.00 0.00 0.00 36 1016.1
20260503180437 54 327 5.0 8.0 0.00 0.00 0.00 35 1016.4
20260503175934 52 288 4.0 6.0 0.00 0.00 0.00 38 1016.1
20260503175432 52 326 3.0 6.0 0.00 0.00 0.00 36 1016.2
20260503174927 52 250 5.0 11.0 0.00 0.00 0.00 36 1016.2
20260503174426 54 306 1.0 8.0 0.00 0.00 0.00 35 1016.2
20260503173926 54 8 2.0 7.0 0.00 0.00 0.00 39 1016.4
20260503173422 52 65 2.0 7.0 0.00 0.00 0.00 39 1016.2
20260503172919 52 230 2.0 6.0 0.00 0.00 0.00 35 1016.3
20260503172417 55 300 2.0 6.0 0.00 0.00 0.00 34 1016.4
20260503171912 52 83 3.0 10.0 0.00 0.00 0.00 35 1016.1
20260503171409 52 333 7.0 10.0 0.00 0.00 0.00 34 1016.0
20260503170907 55 293 2.0 10.0 0.00 0.00 0.00 37 1016.5
20260503170403 51 311 5.0 6.0 0.00 0.00 0.00 35 1016.2